Lid_Strength_Index
5 6 6 6 6 6 5 5 4 4 4 4 3 3 4 3 2 2 2 1 3 6 5 4 4 6 6 6 9 7 8 8 8 12 13 13 14 13 13 11 12 14 14 13 11 13 16 7 8 12 9 7 6 7
6 6 6 6 6 6 5 5 4 4 4 4 3 3 4 3 2 2 3 0 1 4 5 2 2 2 3 3 5 6 8 8 8 11 11 11 13 12 13 16 9 14 11 13 13 13 9 7 8 6 6 7 8 6
6 6 6 6 6 6 5 5 4 4 4 4 3 3 4 3 2 2 2 2 2 4 5 4 5 2 1 2 2 6 5 5 6 5 8 10 12 10 14 13 11 10 8 11 11 9 8 7 5 5 5 6 5 6
6 6 7 6 6 6 5 5 4 4 4 4 3 3 3 3 2 2 3 2 3 5 8 6 2 3 2 1 2 3 3 3 4 5 8 10 11 8 12 11 11 9 9 10 10 9 8 6 6 5 5 5 6 4
6 7 7 7 6 6 5 5 4 4 4 4 3 3 3 3 2 2 2 2 3 5 9 7 4 3 2 2 2 2 3 4 5 7 9 10 8 9 9 9 11 8 10 11 12 8 8 8 5 4 5 5 4 4
6 6 6 6 7 6 5 5 4 4 4 4 3 3 3 3 2 2 5 2 2 3 7 10 3 4 2 2 3 3 3 4 5 7 7 7 5 8 11 12 8 7 6 6 8 6 6 5 5 5 4 4 4 4
6 6 6 7 6 6 5 4 3 3 3 3 3 3 3 3 1 4 5 4 3 2 6 9 8 4 3 3 3 4 3 4 5 6 7 7 7 7 9 11 8 7 6 5 5 6 7 6 6 4 4 3 4 3
6 6 6 6 6 5 4 4 4 3 3 3 4 4 3 3 3 3 2 3 2 4 5 9 8 6 2 6 7 4 6 5 6 6 6 7 7 8 11 8 7 6 5 5 5 4 5 4 4 3 3 4 4 4
6 5 6 6 6 5 5 4 4 3 3 4 4 3 3 3 4 3 2 2 3 5 8 8 10 11 4 6 5 5 5 9 5 7 7 7 9 11 9 8 7 6 6 6 5 5 5 5 4 4 4 4 5 5
5 5 5 5 5 5 4 4 4 4 4 4 4 5 7 4 2 2 4 6 6 6 5 8 6 9 6 7 8 7 6 9 11 8 6 9 9 7 6 5 5 5 5 5 6 6 6 5 5 5 5 6 5 5
5 5 5 5 5 5 4 4 4 4 4 5 6 7 4 2 4 5 8 8 7 9 7 7 6 8 4 8 9 7 9 8 11 9 9 10 10 7 6 6 5 5 4 5 4 4 4 4 5 5 7 7 7 5
5 5 5 5 5 5 4 4 4 5 5 5 5 4 5 6 7 9 10 8 9 10 7 8 7 6 5 5 8 8 9 9 12 7 10 11 9 7 6 6 5 4 4 4 4 4 4 4 4 5 5 6 4 4
5 5 5 5 5 5 4 4 4 4 4 3 4 7 7 7 12 12 13 11 10 7 6 7 8 6 6 6 8 9 12 12 8 11 12 10 8 6 6 5 5 4 4 4 3 4 4 4 3 4 5 5 3 4
5 5 5 5 5 5 4 4 4 4 4 6 8 12 10 11 10 9 9 8 6 6 7 7 8 8 7 9 9 12 10 9 12 13 12 10 8 7 5 5 5 4 4 4 4 4 4 4 4 3 3 3 3 4
5 5 5 5 5 5 4 4 3 2 4 7 7 12 10 7 6 6 6 6 6 5 6 7 7 7 9 9 9 10 11 13 12 12 10 8 6 6 6 5 5 5 5 4 4 4 4 4 4 4 3 3 3 4
5 6 6 5 5 4 3 3 3 3 4 6 7 9 7 8 8 7 7 7 5 5 5 7 9 10 10 9 11 12 13 13 12 9 7 6 6 6 5 5 4 4 4 4 4 4 4 4 4 4 3 3 3 3
6 6 4 4 3 3 2 3 3 5 6 7 8 5 6 7 7 7 6 6 4 6 9 8 12 11 9 11 12 10 11 10 8 7 6 5 6 6 5 5 4 4 4 4 4 4 4 3 3 4 4 4 3 3
7 4 4 3 3 3 3 3 4 6 8 7 8 6 5 6 7 6 5 5 6 7 7 9 8 11 12 12 11 9 8 7 6 6 5 5 5 4 4 5 4 4 4 4 4 4 3 4 4 4 3 3 3 3
5 4 3 3 2 3 4 4 4 8 7 6 5 5 5 6 5 4 5 4 4 4 6 8 10 11 11 8 8 8 7 7 7 6 6 4 4 4 4 4 4 4 4 4 4 4 3 3 3 3 3 3 4 4
6 4 4 2 2 3 6 6 3 6 8 7 5 6 6 6 5 5 6 6 6 6 8 9 9 8 7 6 6 6 5 5 6 7 6 5 4 4 4 4 4 3 3 3 3 4 3 3 3 2 2 3 3 3
5 4 3 2 3 3 5 6 6 5 5 6 6 6 7 5 6 7 7 6 7 8 9 7 7 5 4 4 4 4 4 4 5 5 6 6 4 4 4 3 3 3 4 4 4 4 4 4 3 3 3 3 2 2
5 3 4 3 4 4 5 4 6 5 6 6 6 6 7 8 8 7 6 7 8 7 6 5 5 5 5 5 5 4 4 4 4 4 5 5 5 5 4 4 4 4 4 4 3 4 3 3 3 3 2 2 3 2
4 3 4 4 6 7 8 3 7 6 9 8 7 8 8 8 7 5 8 7 6 4 4 4 4 4 4 4 4 3 3 4 4 4 4 4 4 3 3 3 3 4 4 3 3 3 3 4 3 2 2 2 2 3
3 5 6 7 7 9 5 7 6 7 7 8 8 10 9 8 6 8 10 8 6 4 5 5 4 5 4 4 4 4 3 3 4 3 3 4 4 4 3 3 3 2 2 2 2 2 3 3 3 3 2 3 3 3
9 8 7 11 6 8 9 9 8 8 9 8 9 9 9 7 9 9 9 7 6 5 5 4 4 5 5 5 4 4 2 3 4 4 3 3 3 3 3 3 3 3 2 3 3 3 3 2 2 2 2 3 3 3
10 7 9 8 8 9 8 10 9 9 9 9 9 7 7 8 10 10 8 6 6 5 4 5 5 5 5 4 5 4 3 2 2 4 4 3 3 3 4 4 4 3 1 1 2 3 3 3 3 2 3 3 5 3
10 8 6 4 5 6 7 7 6 8 9 9 8 8 9 11 10 8 5 4 4 3 3 2 3 4 4 4 2 2 1 1 2 2 1 1 1 1 2 3 4 2 1 1 2 2 2 2 2 2 2 2 2 2
6 6 8 6 6 6 8 8 8 9 8 7 7 9 10 10 10 6 4 2 2 2 2 2 2 2 2 2 2 2 2 1 1 1 1 1 1 1 1 1 1 6 2 1 1 1 2 2 2 2 2 2 2 2
7 5 5 8 7 7 7 8 8 6 5 6 8 9 8 6 4 4 3 2 2 2 3 3 3 2 2 2 1 2 1 2 2 3 4 4 3 3 1 1 1 1 1 2 8 3 0 1 1 2 1 2 2 1
7 4 7 7 8 9 6 5 6 5 4 5 5 5 5 4 3 2 2 2 3 3 3 2 2 2 3 3 3 2 2 2 2 3 4 4 3 2 1 1 2 2 1 1 1 1 5 3 3 1 2 2 2 2
5 6 7 7 8 6 5 4 3 4 4 5 4 6 6 4 3 2 2 2 2 2 3 3 3 2 3 3 3 3 4 2 1 1 1 1 2 1 1 1 1 1 1 1 1 2 2 2 2 2 2 2 2 2
6 7 8 9 8 5 4 5 6 6 5 6 5 5 5 5 7 5 2 2 3 3 4 3 3 3 2 2 1 1 5 1 1 1 0 1 1 0 1 1 1 1 1 1 1 2 2 2 2 2 2 2 2 2
6 6 6 6 7 7 6 6 6 7 6 7 7 6 6 6 7 4 1 1 2 3 3 2 2 1 1 1 1 1 3 1 3 7 8 7 6 4 2 0 1 1 1 1 1 2 1 2 2 2 2 2 2 2